Gettysburg, PA (17325)

1:06 PM EST on February 24, 2017 (GMT -0500)
Lake Heritage | | Change Station

Elev 505 ft 39.81 °N, 77.19 °W | Updated 8 seconds ago

Clear
Clear
77.2 °F
Feels Like 78 °F
N
4.5
Wind Variable Wind from South
Gusts 7.4 mph

Today
High -- | Low -- °F
--% Chance of Precip.
Yesterday
High -- | Low -- °F
Precip. -- in
Pressure 29.80 in
Visibility 10.0 miles
Clouds Clear
Heat Index 78 °F
Dew Point 52 °F
Humidity 41%
Rainfall 0.00 in
Snow Depth Not available.
6:48 AM 5:55 PM
Waning Crescent, 4% visible
METAR KRYT 241753Z AUTO 00000KT 10SM CLR 23/12 A2982 RMK AO2 SLP090 T02280117 10233 20106 58022 TSNO $
Pressure 29.80 in
Visibility 10.0 miles
Clouds Clear
Heat Index 78 °F
Dew Point 52 °F
Humidity 41%
Rainfall 0.00 in
Snow Depth Not available.
6:48 AM 5:55 PM
Waning Crescent, 4% visible
METAR KRYT 241753Z AUTO 00000KT 10SM CLR 23/12 A2982 RMK AO2 SLP090 T02280117 10233 20106 58022 TSNO $

Get Your Daily Forecast Email!

Thanks for signing up!

Be on the lookout for a verification email in your inbox.

You'll start receiving the daily forecast at 8 AM.

×

10-Day Weather Forecast

Almanac

Astronomy

Feb. 24, 2017 Rise Set
Actual Time
Civil Twilight
Nautical Twilight
Astronomical Twilight
Moon
Length of Visible Light
Length of Day
Tomorrow will be .
, % of the Moon is Illuminated

Today's Extremes

State Highs State Lows

Community

WunderPhotos

Upload Photos

1,962,540 photos uploaded!

WunderBlog® & News

Nearby

Air Quality

  Air Quality AQ Index Pollutant
Not available.

Snow Depth

Station Depth Elevation

Earthquake Activity

City Distance Mag. Time & Date
Minimum magnitude displayed is 2.5.

Coastal Water Temperatures

Place Temperature

Stations

Nearby Weather Stations

Station Location Temp. Windchill Dew Point Humidity Wind Precip. Elev Updated Type
                   

Watches & Warnings

There are currently no watches in effect.